This is the latest recevied weather packets stored in our database for station/object N3TJJ-11. If no packets are shown the sender has not sent any weather packets the latest 10 day(s).
| Time | Temp. | Humidity | Pressure | Rain* | Wind** | Luminosity | Snow |
|---|---|---|---|---|---|---|---|
| 1777821229 | 7.78° C | 46% | 1014.1 hPa | 0 mm | - | - | - |
| 1777821108 | 7.78° C | 46% | 1014 hPa | 0 mm | - | - | - |
| 1777820630 | 8.33° C | 47% | 1014 hPa | 0 mm | - | - | - |
| 1777820388 | 8.33° C | 48% | 1014.1 hPa | 0 mm | - | - | - |
| 1777820030 | 8.33° C | 50% | 1014 hPa | 0 mm | - | - | - |
| 1777819668 | 8.33° C | 48% | 1014 hPa | 0 mm | - | - | - |
| 1777819429 | 8.33° C | 49% | 1014.1 hPa | 0 mm | - | - | - |
| 1777818948 | 7.78° C | 50% | 1014.1 hPa | 0 mm | - | - | - |
| 1777818829 | 7.78° C | 49% | 1014.1 hPa | 0 mm | - | - | - |
| 1777818228 | 7.22° C | 54% | 1014.1 hPa | 0 mm | - | - | - |
| 1777817630 | 7.22° C | 55% | 1014.1 hPa | 0 mm | - | - | - |
| 1777817508 | 7.22° C | 55% | 1013.9 hPa | 0 mm | - | - | - |
| 1777817029 | 7.22° C | 56% | 1014 hPa | 0 mm | - | - | - |
| 1777816788 | 7.22° C | 58% | 1014 hPa | 0 mm | - | - | - |
| 1777816430 | 6.67° C | 58% | 1014 hPa | 0 mm | - | - | - |
| 1777816068 | 6.67° C | 58% | 1014 hPa | 0 mm | - | - | - |
| 1777815829 | 6.67° C | 58% | 1014.1 hPa | 0 mm | - | - | - |
| 1777815348 | 6.11° C | 59% | 1013.9 hPa | 0 mm | - | - | - |
| 1777815229 | 6.11° C | 59% | 1013.9 hPa | 0 mm | - | - | - |
| 1777814628 | 6.67° C | 61% | 1014 hPa | 0 mm | - | - | - |
| 1777814029 | 6.11° C | 62% | 1014 hPa | 0 mm | - | - | - |
| 1777813908 | 5.56° C | 62% | 1013.9 hPa | 0 mm | - | - | - |
| 1777813429 | 6.11° C | 61% | 1013.8 hPa | 0 mm | - | - | - |
| 1777813188 | 6.11° C | 62% | 1013.8 hPa | 0 mm | - | - | - |
| 1777812829 | 6.11° C | 61% | 1013.8 hPa | 0 mm | - | - | - |
* Rain latest hour (hover to see other rain measurements)
** Current wind speed in m/s (hover to see current wind gust speed)